Regional Weather Roundup
Issued by NWS

Home | Current Version | Previous Version | Graphics & Text | Print | Product List | Glossary On
Versions: 1 2 3 4 5 6 7 8 9 10 11 12 13 14 15 16 17 18 19 20 21 22 23 24 25 26 27 28 29 30 31 32 33 34 35 36 37 38 39 40 41 42 43 44 45 46 47 48 49 50
000
ASUS43 KLSX 250557
RWRMO

WEATHER SUMMARY FOR MISSOURI
NATIONAL WEATHER SERVICE SPRINGFIELD MO
100 AM CDT SAT MAR 25 2017

NOTE: "FAIR" INDICATES FEW OR NO CLOUDS BELOW 12,000 FEET WITH NO
       SIGNIFICANT WEATHER AND/OR OBSTRUCTIONS TO VISIBILITY.
       CURRENT SKY AND/OR WEATHER CONDITIONS ARE NOT AVAILABLE FOR
       CHILLICOTHE AND FARMINGTON.

MOZ001>031-035>038-043-044-053-054-250700-
...NORTHERN AND WESTERN MISSOURI...

CITY           SKY/WX    TMP DP  RH WIND       PRES   REMARKS
KANSAS CTY INT CLOUDY    57  57 100 NE9       29.79F FOG
6HR MIN TEMP:  55; 6HR MAX TEMP:  61;

LEE`S SUMMIT   CLOUDY    57  56  96 E6        29.80S
6HR MIN TEMP:  56; 6HR MAX TEMP:  60;

ST JOSEPH      LGT RAIN  49  48  97 N15       29.82F
6HR MIN TEMP:  49; 6HR MAX TEMP:  59; 6HR PCP:  0.02;

CHILLICOTHE      N/A     57  55  93 E5        29.84S
6HR MIN TEMP:  57; 6HR MAX TEMP:  59; 6HR PCP:  0.09;

KIRKSVILLE     CLOUDY    55  54  96 NE6       29.90S

$$
MOZ066>068-077>081-088>096-101>105-250700-
...SOUTHWEST MISSOURI...

CITY           SKY/WX    TMP DP  RH WIND       PRES   REMARKS
SPRINGFIELD    MOCLDY    55  50  83 S10       29.78F
6HR MIN TEMP:  54; 6HR MAX TEMP:  60; 6HR PCP:  0.80;

JOPLIN         MOCLDY    58  54  86 S8        29.78F
6HR MIN TEMP:  56; 6HR MAX TEMP:  62;


$$
MOZ032>034-039>042-045>050-055>058-069>072-250700-
...CENTRAL MISSOURI...

CITY           SKY/WX    TMP DP  RH WIND       PRES   REMARKS
COLUMBIA       NOT AVBL
JEFFERSON CITY CLOUDY    59  54  83 E8        29.83F
6HR MIN TEMP:  59; 6HR MAX TEMP:  67; 6HR PCP:  0.66;

ROLLA          CLOUDY    54  53  97 S7        29.86F
6HR MIN TEMP:  53; 6HR MAX TEMP:  70; 6HR PCP:  1.10;

SEDALIA        CLOUDY    58  48  69 SE10      29.81F
6HR MIN TEMP:  57; 6HR MAX TEMP:  62; 6HR PCP:  0.02;

WARRENSBURG    CLOUDY    55  46  71 S6        29.80S

$$
MOZ051-052-059>065-250700-
...EAST CENTRAL MISSOURI...

CITY           SKY/WX    TMP DP  RH WIND       PRES   REMARKS
ST LOUIS INTL  TSTM      65  59  81 SE13      29.91S
6HR MIN TEMP:  65; 6HR MAX TEMP:  75; 6HR PCP:  0.17;


$$
MOZ072>076-082>087-097>100-106>115-250700-
...SOUTH CENTRAL AND SOUTHEAST MISSOURI...

CITY           SKY/WX    TMP DP  RH WIND       PRES   REMARKS
CAPE GIRARDEAU MOCLDY    66  55  67 SE21      29.92F
6HR MIN TEMP:  65; 6HR MAX TEMP:  69;

FARMINGTON     HVY RAIN  57  55  94 W9G17     29.92R
POPLAR BLUFF   CLOUDY    68  59  73 S22G32    29.86F
6HR MIN TEMP:  66; 6HR MAX TEMP:  70;

WEST PLAINS    LGT RAIN  54  52  93 W9        29.88F
6HR MIN TEMP:  54; 6HR MAX TEMP:  70; 6HR PCP:  0.76;


$$



USA.gov is the U.S. government's official web portal to all federal, state and local government web resources and services.